Location: Spruce Knob
(38.6995°N, 79.5330°W)
Time: 14:41:19
(UTC-05:00)

Tiros 1 despin weight - All Passes

Search period start: 25 January 2022 00:00
Search period end: 04 February 2022 00:00
Orbit: 592 x 641 km, 48.2° (Epoch: 25 January)

Date Brightness Start Highest point End Pass type
(mag) Time Alt. Az. Time Alt. Az. Time Alt. Az.
25 Jan - 00:27:24 10° W 00:31:06 23° SW 00:34:46 10° S night (unlit)
25 Jan - 16:13:17 10° SW 16:17:39 50° SE 16:22:05 10° ENE daylight
25 Jan - 17:54:58 10° W 17:59:17 40° NNW 18:03:40 10° NE visible
25 Jan - 19:37:53 10° WNW 19:41:41 25° N 19:45:32 10° NE visible
25 Jan - 21:19:51 10° NW 21:24:09 36° NNE 21:28:29 10° E visible
25 Jan - 23:01:18 10° WNW 23:05:57 66° SW 23:10:34 10° SE night (unlit)
26 Jan - 00:45:22 10° WSW 00:46:48 11° SW 00:48:14 10° SSW night (unlit)
26 Jan - 14:49:44 10° S 14:52:37 17° SE 14:55:33 10° E daylight
26 Jan - 16:29:08 10° WSW 16:33:38 87° NW 16:38:15 10° ENE daylight
26 Jan - 18:11:35 10° WNW 18:15:38 30° NNW 18:19:44 10° NE visible
26 Jan - 19:54:16 10° NW 19:58:10 26° N 20:02:04 10° ENE visible
26 Jan - 21:35:52 10° NW 21:40:26 53° NNE 21:45:01 10° ESE visible
26 Jan - 23:17:38 10° WNW 23:21:52 34° SW 23:26:06 10° SSE night (unlit)
27 Jan - 15:04:21 10° SSW 15:08:23 33° SE 15:12:28 10° ENE daylight
27 Jan - 16:45:23 10° WSW 16:49:47 52° NNW 16:54:17 10° NE daylight
27 Jan - 18:28:14 10° WNW 18:32:04 26° N 18:35:56 10° NE visible
27 Jan - 20:10:29 10° NW 20:14:35 30° NNE 20:18:43 10° ENE visible
27 Jan - 21:51:54 10° WNW 21:56:34 88° NNE 22:01:15 10° ESE night (unlit)
27 Jan - 23:34:32 10° W 23:37:39 18° SW 23:40:46 10° S night (unlit)
28 Jan - 13:42:39 10° SE 13:43:29 10° SE 13:44:20 10° ESE daylight
28 Jan - 15:19:52 10° SW 15:24:17 65° SE 15:28:49 10° ENE daylight
28 Jan - 17:01:54 10° W 17:06:04 35° NNW 17:10:19 10° NE daylight
28 Jan - 18:44:44 10° NW 18:48:32 25° N 18:52:21 10° ENE visible
28 Jan - 20:26:32 10° NW 20:30:56 41° NNE 20:35:21 10° E visible
28 Jan - 22:08:04 10° WNW 22:12:35 51° SW 22:17:06 10° SE night (unlit)
29 Jan - 13:55:45 10° S 13:59:11 22° SE 14:02:40 10° E daylight
29 Jan - 15:35:53 10° WSW 15:40:20 71° NNW 15:44:55 10° NE daylight
29 Jan - 17:18:32 10° WNW 17:22:26 28° N 17:26:25 10° NE daylight
29 Jan - 19:01:03 10° NW 19:04:59 27° N 19:08:57 10° ENE visible
29 Jan - 20:42:32 10° NW 20:47:08 64° NNE 20:51:47 10° ESE visible
29 Jan - 22:24:32 10° WNW 22:28:26 27° SW 22:32:21 10° SSE night (unlit)
30 Jan - 14:10:47 10° SSW 14:15:00 43° SE 14:19:17 10° ENE daylight
30 Jan - 15:52:14 10° W 15:56:33 44° NNW 16:00:55 10° NE daylight
30 Jan - 17:35:08 10° WNW 17:38:53 25° N 17:42:42 10° NE daylight
30 Jan - 19:17:11 10° NW 19:21:23 33° NNE 19:25:36 10° E visible
30 Jan - 20:58:36 10° WNW 21:03:14 75° SW 21:07:53 10° SE visible
30 Jan - 22:41:56 10° W 22:44:10 13° SW 22:46:25 10° SSW night (unlit)
31 Jan - 12:47:39 10° SSE 12:50:01 14° SE 12:52:24 10° E daylight
31 Jan - 14:26:30 10° SW 14:30:57 83° SSE 14:35:30 10° ENE daylight
31 Jan - 16:08:49 10° W 16:12:51 31° NNW 16:16:57 10° NE daylight
31 Jan - 17:51:34 10° NW 17:55:21 25° N 17:59:11 10° ENE daylight
31 Jan - 19:33:12 10° NW 19:37:40 48° NNE 19:42:10 10° E visible
31 Jan - 21:14:51 10° WNW 21:19:10 39° SW 21:23:31 10° SSE visible
01 Feb - 13:01:57 10° SSW 13:05:45 28° SE 13:09:37 10° ENE daylight
01 Feb - 14:42:40 10° WSW 14:47:04 57° NNW 14:51:33 10° NE daylight
01 Feb - 16:25:28 10° WNW 16:29:16 26° N 16:33:07 10° NE daylight
01 Feb - 18:07:47 10° NW 18:11:47 29° NNE 18:15:49 10° ENE visible
01 Feb - 19:49:12 10° NW 19:53:49 78° NNE 19:58:29 10° ESE visible
01 Feb - 21:31:33 10° W 21:34:59 21° SW 21:38:25 10° S visible
02 Feb - 13:17:17 10° SW 13:21:37 56° SE 13:26:02 10° ENE daylight
02 Feb - 14:59:08 10° W 15:03:18 37° NNW 15:07:33 10° NE daylight
02 Feb - 16:42:00 10° NW 16:45:43 24° N 16:49:29 10° NE daylight
02 Feb - 18:23:52 10° NW 18:28:08 38° NNE 18:32:27 10° E visible
02 Feb - 20:05:19 10° WNW 20:09:51 59° SW 20:14:25 10° SE visible
03 Feb - 11:53:28 10° S 11:56:33 19° SE 11:59:40 10° E daylight
03 Feb - 13:33:12 10° WSW 13:37:38 79° NNW 13:42:09 10° NE daylight
03 Feb - 15:15:45 10° WNW 15:19:39 28° NNW 15:23:37 10° NE daylight
03 Feb - 16:58:21 10° NW 17:02:10 26° N 17:06:02 10° ENE daylight
03 Feb - 18:39:51 10° NW 18:44:22 57° NNE 18:48:57 10° ESE visible
03 Feb - 20:21:42 10° WNW 20:25:44 31° SW 20:29:49 10° SSE visible
